| time (UTC) | temp F | wind direction | speed MPH | gust MPH | rain 1hr in | rain 24hr in | rain mn in | humidity % | barometer mb |
| 20260903144500 | 79 | 103 | 2.0 | 7.0 | 0.00 | 0.00 | 0.00 | 75 | 1010.9 |
| 20260903143001 | 77 | 109 | 3.0 | 10.0 | 0.00 | 0.00 | 0.00 | 76 | 1010.8 |
| 20260903141500 | 77 | 60 | 3.0 | 12.0 | 0.00 | 0.00 | 0.00 | 77 | 1011.0 |
| 20260903140000 | 77 | 72 | 6.0 | 12.0 | 0.00 | 0.00 | 0.00 | 77 | 1011.2 |
| 20260903131500 | 76 | 51 | 3.0 | 7.0 | 0.00 | 0.00 | 0.00 | 83 | 1011.3 |
| 20260903130001 | 76 | 30 | 2.0 | 5.0 | 0.00 | 0.00 | 0.00 | 86 | 1011.5 |
| 20260903124501 | 75 | 28 | 0.0 | 3.0 | 0.00 | 0.00 | 0.00 | 88 | 1011.2 |
| 20260903123001 | 75 | 53 | 2.0 | 5.0 | 0.00 | 0.00 | 0.00 | 88 | 1011.2 |
| 20260903121500 | 75 | 19 | 3.0 | 9.0 | 0.00 | 0.00 | 0.00 | 87 | 1011.2 |
| 20260903120000 | 75 | 14 | 6.0 | 12.0 | 0.00 | 0.00 | 0.00 | 86 | 1011.1 |
| 20260903114500 | 75 | 341 | 3.0 | 5.0 | 0.00 | 0.00 | 0.00 | 85 | 1010.6 |
| 20260903113000 | 76 | 336 | 2.0 | 3.0 | 0.00 | 0.00 | 0.00 | 84 | 1010.2 |
| 20260903111500 | 76 | 310 | 1.0 | 3.0 | 0.00 | 0.00 | 0.00 | 83 | 1009.8 |
| 20260903110000 | 76 | 180 | 2.0 | 5.0 | 0.00 | 0.00 | 0.00 | 83 | 1009.5 |
| 20260903103000 | 77 | 166 | 2.0 | 7.0 | 0.00 | 0.00 | 0.00 | 82 | 1009.4 |
| 20260903100001 | 77 | 166 | 3.0 | 6.0 | 0.00 | 0.00 | 0.00 | 81 | 1009.3 |
| 20260903094501 | 77 | 170 | 4.0 | 7.0 | 0.00 | 0.00 | 0.00 | 81 | 1009.3 |
| 20260903093000 | 77 | 168 | 2.0 | 6.0 | 0.00 | 0.00 | 0.00 | 81 | 1009.4 |
| 20260903091500 | 78 | 165 | 3.0 | 8.0 | 0.00 | 0.00 | 0.00 | 81 | 1009.4 |
| 20260903090000 | 78 | 164 | 4.0 | 7.0 | 0.00 | 0.00 | 0.00 | 81 | 1009.4 |
| 20260903084500 | 78 | 172 | 3.0 | 5.0 | 0.00 | 0.00 | 0.00 | 81 | 1009.5 |
| 20260903083000 | 78 | 181 | 2.0 | 5.0 | 0.00 | 0.00 | 0.00 | 80 | 1009.6 |
| 20260903081500 | 78 | 159 | 3.0 | 6.0 | 0.00 | 0.00 | 0.00 | 81 | 1009.5 |
| 20260903074500 | 78 | 155 | 2.0 | 5.0 | 0.00 | 0.00 | 0.00 | 80 | 1009.2 |
| 20260903073001 | 78 | 164 | 2.0 | 5.0 | 0.00 | 0.00 | 0.00 | 80 | 1009.3 |
| 20260903071501 | 79 | 154 | 2.0 | 6.0 | 0.00 | 0.00 | 0.00 | 80 | 1009.4 |
| 20260903070001 | 79 | 160 | 2.0 | 8.0 | 0.00 | 0.00 | 0.00 | 80 | 1009.5 |
| 20260903064500 | 79 | 168 | 2.0 | 6.0 | 0.00 | 0.00 | 0.00 | 81 | 1009.5 |
| 20260903063001 | 78 | 167 | 2.0 | 5.0 | 0.00 | 0.00 | 0.00 | 82 | 1009.5 |
| 20260903061501 | 79 | 163 | 2.0 | 5.0 | 0.00 | 0.00 | 0.00 | 82 | 1009.7 |
| 20260903060000 | 79 | 169 | 2.0 | 6.0 | 0.00 | 0.00 | 0.00 | 82 | 1009.7 |
| 20260903054501 | 79 | 154 | 2.0 | 5.0 | 0.00 | 0.00 | 0.00 | 82 | 1009.7 |
| 20260903053000 | 79 | 158 | 3.0 | 6.0 | 0.00 | 0.00 | 0.00 | 82 | 1009.7 |
| 20260903051501 | 80 | 139 | 3.0 | 6.0 | 0.00 | 0.00 | 0.00 | 82 | 1009.7 |
| 20260903050001 | 80 | 168 | 3.0 | 5.0 | 0.00 | 0.00 | 0.00 | 82 | 1009.7 |
| 20260903044500 | 80 | 156 | 2.0 | 5.0 | 0.00 | 0.00 | 0.00 | 82 | 1009.6 |
| 20260903043000 | 80 | 171 | 2.0 | 5.0 | 0.00 | 0.00 | 0.00 | 82 | 1009.6 |
| 20260903041500 | 80 | 154 | 2.0 | 5.0 | 0.00 | 0.00 | 0.00 | 83 | 1009.6 |
| 20260903034500 | 78 | 126 | 1.0 | 3.0 | 0.00 | 0.00 | 0.00 | 88 | 1009.6 |
| 20260903033000 | 78 | 170 | 0.0 | 1.0 | 0.00 | 0.00 | 0.00 | 87 | 1009.5 |
| 20260903031501 | 78 | 170 | 0.0 | 2.0 | 0.00 | 0.00 | 0.00 | 86 | 1009.5 |
| 20260903030001 | 79 | 170 | 0.0 | 3.0 | 0.00 | 0.00 | 0.00 | 86 | 1009.4 |
| 20260903024501 | 79 | 171 | 0.0 | 3.0 | 0.00 | 0.00 | 0.00 | 84 | 1009.4 |
| 20260903023001 | 80 | 159 | 1.0 | 3.0 | 0.00 | 0.00 | 0.00 | 83 | 1009.5 |
| 20260903021501 | 80 | 83 | 1.0 | 3.0 | 0.00 | 0.00 | 0.00 | 83 | 1009.4 |
| 20260903014500 | 80 | 165 | 0.0 | 3.0 | 0.00 | 0.00 | 0.00 | 85 | 1009.2 |
| 20260903013001 | 80 | 85 | 2.0 | 8.0 | 0.00 | 0.00 | 0.00 | 84 | 1009.0 |
| 20260903011501 | 80 | 51 | 5.0 | 7.0 | 0.00 | 0.00 | 0.00 | 85 | 1009.0 |
| 20260903010001 | 80 | 42 | 1.0 | 3.0 | 0.00 | 0.00 | 0.00 | 87 | 1008.7 |
| 20260903003001 | 80 | 130 | 1.0 | 2.0 | 0.00 | 0.00 | 0.00 | 86 | 1008.6 |
| 20260903000001 | 82 | 84 | 1.0 | 3.0 | 0.00 | 0.00 | 0.00 | 82 | 1008.8 |
| 20260902234501 | 83 | 117 | 0.0 | 3.0 | 0.00 | 0.00 | 0.00 | 78 | 1009.1 |
| 20260902233001 | 82 | 57 | 0.0 | 3.0 | 0.00 | 0.00 | 0.00 | 78 | 1009.2 |
| 20260902231501 | 82 | 57 | 2.0 | 3.0 | 0.00 | 0.00 | 0.00 | 82 | 1009.2 |
| 20260902230001 | 82 | 97 | 2.0 | 5.0 | 0.00 | 0.00 | 0.00 | 81 | 1009.4 |
| 20260902224501 | 84 | 144 | 2.0 | 3.0 | 0.00 | 0.00 | 0.00 | 79 | 1010.0 |
| 20260902223001 | 85 | 323 | 0.0 | 2.0 | 0.00 | 0.00 | 0.00 | 73 | 1010.1 |
| 20260902221501 | 85 | 58 | 1.0 | 3.0 | 0.00 | 0.00 | 0.00 | 72 | 1009.8 |
| 20260902220001 | 85 | 82 | 2.0 | 8.0 | 0.00 | 0.00 | 0.00 | 71 | 1009.2 |
| 20260902214501 | 86 | 66 | 3.0 | 5.0 | 0.00 | 0.00 | 0.00 | 71 | 1009.7 |
| 20260902213001 | 87 | 23 | 2.0 | 6.0 | 0.00 | 0.00 | 0.00 | 69 | 1010.1 |
| 20260902203001 | 92 | 79 | 1.0 | 3.0 | 0.00 | 0.00 | 0.00 | 54 | 1010.2 |
| 20260902201501 | 92 | 318 | 2.0 | 5.0 | 0.00 | 0.00 | 0.00 | 52 | 1010.3 |
| 20260902200001 | 92 | 288 | 2.0 | 5.0 | 0.00 | 0.00 | 0.00 | 52 | 1010.3 |
| 20260902194501 | 91 | 30 | 3.0 | 7.0 | 0.00 | 0.00 | 0.00 | 52 | 1010.4 |
| 20260902193001 | 91 | 338 | 5.0 | 8.0 | 0.00 | 0.00 | 0.00 | 54 | 1010.5 |
| 20260902191501 | 92 | 239 | 3.0 | 8.0 | 0.00 | 0.00 | 0.00 | 54 | 1010.7 |
| 20260902190001 | 91 | 300 | 6.0 | 9.0 | 0.00 | 0.00 | 0.00 | 54 | 1010.8 |
| 20260902183001 | 91 | 253 | 5.0 | 9.0 | 0.00 | 0.00 | 0.00 | 55 | 1010.7 |
| 20260902181501 | 90 | 258 | 3.0 | 7.0 | 0.00 | 0.00 | 0.00 | 56 | 1010.8 |
| 20260902180000 | 91 | 255 | 3.0 | 7.0 | 0.00 | 0.00 | 0.00 | 57 | 1010.9 |
| 20260902174501 | 91 | 176 | 2.0 | 6.0 | 0.00 | 0.00 | 0.00 | 54 | 1010.9 |
| 20260902173001 | 90 | 190 | 4.0 | 7.0 | 0.00 | 0.00 | 0.00 | 56 | 1011.0 |
| 20260902171501 | 90 | 172 | 3.0 | 5.0 | 0.00 | 0.00 | 0.00 | 57 | 1011.3 |
| 20260902170001 | 89 | 163 | 2.0 | 6.0 | 0.00 | 0.00 | 0.00 | 62 | 1011.3 |
| 20260902163002 | 87 | 176 | 2.0 | 7.0 | 0.00 | 0.00 | 0.00 | 67 | 1011.5 |
| 20260902161501 | 86 | 227 | 2.0 | 6.0 | 0.00 | 0.00 | 0.00 | 70 | 1011.4 |
| 20260902154501 | 83 | 230 | 3.0 | 9.0 | 0.00 | 0.00 | 0.00 | 71 | 1011.3 |
| 20260902153001 | 83 | 239 | 3.0 | 6.0 | 0.00 | 0.00 | 0.00 | 72 | 1011.3 |
| 20260902151501 | 82 | 231 | 3.0 | 6.0 | 0.00 | 0.00 | 0.00 | 74 | 1011.1 |
| 20260902150001 | 81 | 186 | 2.0 | 6.0 | 0.00 | 0.00 | 0.00 | 75 | 1011.0 |